Weather History for Valentine, NE

Change the Weather History Date:

Monday, June 24, 2013

  Actual Average Record
Temperature  
Mean Temperature 76 °F 70 °F  
Max Temperature 88 °F 84 °F 110 °F (1988)
Min Temperature 63 °F 57 °F 41 °F (1993)
Degree Days  
Heating Degree Days 0 1  
Month to date heating degree days 54 55  
Since 1 June heating degree days 54 55  
Since 1 July heating degree days 6942 6997  
Cooling Degree Days 11 6  
Month to date cooling degree days 89 92  
Year to date cooling degree days 128 126  
Since 1 June cooling degree days 89 92  
Growing Degree Days 26 (Base 50)    
Moisture  
Dew Point 61 °F    
Average Humidity 70    
Maximum Humidity 100    
Minimum Humidity 39    
Precipitation  
Precipitation 0.00 in 0.12 in 2.04 in (1968)
Month to date precipitation 2.45 2.90  
Year to date precipitation 11.85 10.06  
Snow  
Snow 0.00 in 0.00 in 0.00 in ()
Month to date snowfall 0.0 0.0  
Since 1 June snowfall 0.0 0.0  
Since 1 July snowfall 54.0 33.3  
Snow Depth 0.00 in    
Sea Level Pressure  
Sea Level Pressure 29.73 in    
Wind  
Wind Speed 9 mph (SE)    
Max Wind Speed 22 mph    
Max Gust Speed 30 mph    
Visibility 10 miles    
Events      
T = Trace of Precipitation, MM = Missing Value Source: NWS Daily Summary

Daily Weather History Graph

Daily Weather History Graph

Search for Another Location

Airport:

Trip Planner

Search our weather history database for the weather conditions in past years. The results will help you decide how hot, cold, wet, or windy it might be!

Date:

Astronomy

Jun. 24, 2013 Rise Set
Actual Time 6:04 AM CDT 9:24 PM CDT
Civil Twilight 5:29 AM CDT 10:00 PM CDT
Nautical Twilight 4:43 AM CDT 10:45 PM CDT
Astronomical Twilight 3:46 AM CDT 11:42 PM CDT
Moon 10:24 PM CDT (6/24) 7:37 AM CDT (6/24)
Length of Visible Light 16h 30m
Length of Day
15h 20m
Full, 98% of the Moon is Illuminated
Jun 24
Full
Jun 29
Last Quarter
Jul 8
New
Jul 15
First Quarter
Jul 22
Full

Hourly Weather History & Observations

Time (CDT) Temp. Heat Index Dew Point Humidity Pressure Visibility Wind Dir Wind Speed Gust Speed Precip Events Conditions
12:52 AM 64.0 °F - 61.0 °F 90% 29.85 in 10.0 mi East 6.9 mph - N/A   Clear
1:52 AM 64.0 °F - 62.1 °F 93% 29.83 in 10.0 mi ESE 8.1 mph - N/A   Clear
2:52 AM 64.0 °F - 62.1 °F 93% 29.82 in 10.0 mi East 5.8 mph - N/A   Clear
3:52 AM 64.0 °F - 63.0 °F 96% 29.81 in 10.0 mi ESE 5.8 mph - N/A   Clear
4:52 AM 64.9 °F - 64.0 °F 97% 29.81 in 10.0 mi SSE 5.8 mph - N/A   Mostly Cloudy
5:52 AM 66.9 °F - 61.0 °F 81% 29.77 in 10.0 mi Calm Calm - N/A   Clear
6:52 AM 64.0 °F - 57.9 °F 80% 29.72 in 10.0 mi NW 6.9 mph - N/A   Clear
7:52 AM 64.0 °F - 59.0 °F 84% 29.69 in 10.0 mi Calm Calm - N/A   Clear
8:52 AM 70.0 °F - 57.9 °F 65% 29.69 in 10.0 mi Calm Calm - N/A   Clear
9:52 AM 73.9 °F - 60.1 °F 62% 29.75 in 10.0 mi East 11.5 mph - N/A   Clear
10:52 AM 77.0 °F - 59.0 °F 54% 29.74 in 10.0 mi ESE 20.7 mph 25.3 mph N/A   Clear
11:52 AM 75.9 °F - 59.0 °F 56% 29.77 in 10.0 mi SE 20.7 mph 26.5 mph N/A   Clear
12:52 PM 78.1 °F - 60.1 °F 54% 29.75 in 10.0 mi SSE 13.8 mph - N/A   Clear
1:52 PM 81.0 °F 81.6 °F 60.1 °F 49% 29.72 in 10.0 mi South 11.5 mph - N/A   Clear
2:52 PM 82.9 °F 83.7 °F 62.1 °F 49% 29.69 in 10.0 mi SSE 18.4 mph 24.2 mph N/A   Clear
3:52 PM 86.0 °F 87.3 °F 64.0 °F 48% 29.67 in 10.0 mi SSE 15.0 mph - N/A   Clear
4:52 PM 87.1 °F 87.5 °F 62.1 °F 43% 29.66 in 10.0 mi South 13.8 mph 23.0 mph N/A   Clear
5:52 PM 87.1 °F 87.0 °F 61.0 °F 41% 29.65 in 10.0 mi SSE 18.4 mph 23.0 mph N/A   Clear
6:52 PM 86.0 °F 86.1 °F 61.0 °F 43% 29.65 in 10.0 mi South 16.1 mph - N/A   Clear
7:52 PM 82.9 °F 84.4 °F 64.0 °F 53% 29.67 in 10.0 mi SSE 10.4 mph - N/A   Clear
8:52 PM 79.0 °F - 68.0 °F 69% 29.69 in 10.0 mi Calm Calm - N/A   Clear
9:52 PM 75.9 °F - 66.9 °F 74% 29.69 in 10.0 mi Calm Calm - N/A   Clear
10:52 PM 78.1 °F - 52.0 °F 40% 29.73 in 10.0 mi NW 4.6 mph - N/A   Overcast
11:52 PM 73.9 °F - 50.0 °F 43% 29.68 in 10.0 mi SSE 6.9 mph - N/A   Clear